Location: New Frontier Mobile Home Park
(32.8448°N, 116.9675°W)
Time: 23:06:53
(UTC+00:00)

COSMOS 2406 - Pass Details

Date: 14 July 2020
Orbit: 844 x 863 km, 71.0° (Epoch: 05 August)

Event Time Altitude Azimuth Distance (km) Brightness Sun altitude
Exits shadow 09:19:55 55° 347° (NNW) 1,026 3.7 -31.8°
Drops below altitude 10° 09:24:33 10° 15° (NNE) 2,505 6.5 -31.4°
Sets 09:27:02 0° 18° (NNE) 3,444 7.5 -31.2°
